Sant Sadurní d´Osormort





Hora UTC 17:30
Temperatura 28.9 ºC
Humitat 51.0 %
Pressió 1015.7 hPa
Pluja 0.0 mm
Velocitat vent 0.0 km/h
Direcció vent NW

Dades diàries 2020-07-05



Hora UTC (hivern +1h; estiu +2h)
Temperatura (ºC) Humitat (%) Pressió (hPa) Velocitat vent (km/h) Precipitació (mm)
Hora UTC Aire Humitat Pressió Vel. Dir. Vel. Max Dir. Intent. màx 5 min.
00:05 14.0 93.0 1021.1 0.0 WNW 0.0 0.0
00:10 13.9 93.0 1021.1 0.0 WNW 0.0 0.0
00:15 13.8 93.0 1021.1 0.0 WNW 0.0 0.0
00:20 13.7 93.0 1021.1 0.0 WNW 0.0 0.0
00:25 13.7 93.0 1020.9 0.0 WNW 0.0 0.0
00:30 13.6 93.0 1020.9 0.0 WNW 0.0 0.0
00:35 13.6 93.0 1020.9 0.0 WNW 0.0 0.0
00:40 13.6 93.0 1020.8 0.0 WNW 0.0 0.0
00:45 13.4 93.0 1020.7 0.0 WNW 0.0 0.0
00:50 13.4 93.0 1020.7 0.0 WNW 0.0 0.0
00:55 13.3 93.0 1020.7 0.0 WNW 0.0 0.0
01:00 13.2 93.0 1020.7 0.0 WNW 0.0 0.0
01:05 13.2 93.0 1020.6 0.0 WNW 0.0 0.0
01:10 13.1 93.0 1020.5 0.0 WNW 0.0 0.0
01:15 13.0 93.0 1020.6 0.0 WNW 0.0 0.0
01:20 12.9 93.0 1020.5 0.0 WNW 0.0 0.0
01:25 12.9 93.0 1020.5 0.0 WNW 0.0 0.0
01:30 12.8 93.0 1020.4 0.0 WNW 0.0 0.0
01:35 12.8 93.0 1020.5 0.0 WNW 0.0 0.0
01:40 12.7 93.0 1020.3 0.0 WNW 0.0 0.0
01:45 12.7 94.0 1020.3 0.0 WNW 0.0 0.0
01:50 12.7 93.0 1020.2 0.0 WNW 0.0 0.0
01:55 12.6 93.0 1020.1 0.0 WNW 0.0 0.0
02:00 12.4 93.0 1020.0 0.0 WNW 0.0 0.0
02:05 12.4 93.0 1020.0 0.0 WNW 0.0 0.0
02:10 12.4 94.0 1020.0 0.0 WNW 0.0 0.0
02:15 12.3 94.0 1020.0 0.0 WNW 0.0 0.0
02:20 12.3 94.0 1020.0 0.0 WNW 0.0 0.0
02:25 12.2 94.0 1020.0 0.0 WNW 0.0 0.0
02:30 12.2 93.0 1019.9 0.0 WNW 0.0 0.0
02:35 12.1 93.0 1019.9 0.0 WNW 0.0 0.0
02:40 12.1 94.0 1019.9 0.0 WNW 0.0 0.0
02:45 12.0 94.0 1019.9 0.0 WNW 0.0 0.0
02:50 12.0 94.0 1019.8 0.0 WNW 0.0 0.0
02:55 11.9 94.0 1019.9 0.0 WNW 0.0 0.0
03:00 11.9 94.0 1019.8 0.0 WNW 0.0 0.0
03:05 11.9 94.0 1019.9 0.0 WNW 0.0 0.0
03:10 12.0 94.0 1019.8 0.0 WNW 0.0 0.0
03:15 11.9 94.0 1019.8 0.0 WNW 0.0 0.0
03:20 11.8 94.0 1019.8 0.0 WNW 0.0 0.0
03:25 11.7 94.0 1019.9 0.0 WNW 0.0 0.0
03:30 11.7 94.0 1019.9 0.0 WNW 0.0 0.0
03:35 11.6 94.0 1019.9 0.0 WNW 0.0 0.0
03:40 11.6 94.0 1019.9 0.0 WNW 0.0 0.0
03:45 11.4 94.0 1019.9 0.0 WNW 0.0 0.0
03:50 11.4 94.0 1020.0 0.0 WNW 0.0 0.0
03:55 11.4 94.0 1020.0 0.0 WNW 0.0 0.0
04:00 11.4 94.0 1020.0 0.0 WNW 0.0 0.0
04:05 11.4 94.0 1020.1 0.0 WNW 0.0 0.0
04:10 11.3 94.0 1020.1 0.0 WNW 0.0 0.0
04:15 11.2 94.0 1020.1 0.0 WNW 0.0 0.0
04:20 11.2 94.0 1020.1 0.0 WNW 0.0 0.0
04:25 11.2 94.0 1020.2 0.0 WNW 0.0 0.0
04:30 11.3 94.0 1020.1 0.0 WNW 0.0 0.0
04:35 11.3 94.0 1020.1 0.0 WNW 0.0 0.0
04:40 11.2 94.0 1020.1 0.0 WNW 0.0 0.0
04:45 11.2 94.0 1020.1 0.0 WNW 0.0 0.0
04:50 11.2 94.0 1020.0 0.0 WNW 0.0 0.0
04:55 11.1 94.0 1020.1 0.0 WNW 0.0 0.0
05:00 11.1 94.0 1020.1 0.0 WNW 0.0 0.0
05:05 11.1 94.0 1020.1 0.0 WNW 0.0 0.0
05:10 11.1 94.0 1020.1 0.0 WNW 0.0 0.0
05:15 11.2 94.0 1020.2 0.0 WNW 0.0 0.0
05:20 11.2 94.0 1020.3 0.0 WNW 0.0 0.0
05:25 11.3 94.0 1020.3 0.0 WNW 0.0 0.0
05:30 11.3 94.0 1020.2 0.0 WNW 0.0 0.0
05:35 11.4 95.0 1020.2 0.0 WNW 0.0 0.0
05:40 11.6 95.0 1020.2 0.0 WNW 0.0 0.0
05:45 11.7 95.0 1020.2 0.0 N 0.0 0.0
05:50 11.8 95.0 1020.1 0.0 N 0.0 0.0
05:55 12.0 95.0 1020.1 0.0 WNW 0.0 0.0
06:00 12.2 95.0 1020.2 0.0 N 0.0 0.0
06:05 12.5 95.0 1020.2 0.0 N 0.0 0.0
06:10 12.7 95.0 1020.2 0.0 N 0.0 0.0
06:15 12.8 95.0 1020.2 0.0 N 0.0 0.0
06:20 13.1 95.0 1020.2 0.0 N 0.0 0.0
06:25 13.3 96.0 1020.2 0.0 N 0.0 0.0
06:30 13.8 96.0 1020.3 0.0 N 0.0 0.0
06:35 14.0 95.0 1020.2 0.0 N 0.0 0.0
06:40 14.2 95.0 1020.3 0.0 N 0.0 0.0
06:45 14.3 95.0 1020.3 0.0 N 0.0 0.0
06:50 14.6 95.0 1020.3 0.0 N 0.0 0.0
06:55 14.9 95.0 1020.4 0.0 WNW 0.0 0.0
07:00 15.2 95.0 1020.3 0.0 WNW 0.0 0.0
07:05 15.6 96.0 1020.3 0.0 WNW 0.0 0.0
07:10 15.9 96.0 1020.4 0.0 WNW 0.0 0.0
07:15 16.2 96.0 1020.4 0.0 WNW 0.0 0.0
07:20 16.4 95.0 1020.4 0.0 WNW 0.0 0.0
07:25 16.8 95.0 1020.4 0.0 WNW 0.0 0.0
07:30 17.1 95.0 1020.3 0.0 WNW 0.0 0.0
07:35 17.4 95.0 1020.4 0.0 WNW 0.0 0.0
07:40 17.8 95.0 1020.4 0.0 WNW 0.0 0.0
07:45 18.3 95.0 1020.4 0.0 WNW 0.0 0.0
07:50 18.7 94.0 1020.3 0.0 WNW 0.0 0.0
07:55 18.9 93.0 1020.3 0.0 W 0.0 0.0
08:00 19.3 93.0 1020.2 0.0 W 0.0 0.0
08:05 19.7 91.0 1020.1 0.0 W 0.0 0.0
08:10 20.3 92.0 1020.1 0.0 W 0.0 0.0
08:15 20.8 91.0 1020.0 0.0 W 0.0 0.0
08:20 21.2 89.0 1020.0 0.0 W 0.0 0.0
08:25 21.5 89.0 1019.9 0.0 W 0.0 0.0
08:30 21.8 86.0 1020.0 0.0 W 0.0 0.0
08:35 22.2 85.0 1019.9 0.0 W 0.0 0.0
08:40 22.8 83.0 1019.8 0.0 W 0.0 0.0
08:45 22.8 81.0 1019.7 0.0 W 0.0 0.0
08:50 23.3 77.0 1019.6 1.6 WNW 4.8 0.0
08:55 23.7 74.0 1019.6 0.0 W 4.8 0.0
09:00 24.2 78.0 1019.5 0.0 W 4.8 0.0
09:05 24.6 76.0 1019.5 0.0 W 3.2 0.0
09:10 24.7 70.0 1019.4 1.6 W 6.4 0.0
09:15 25.1 71.0 1019.5 1.6 NNW 8.0 0.0
09:20 25.4 67.0 1019.5 3.2 ENE 4.8 0.0
09:25 25.7 65.0 1019.5 0.0 ESE 4.8 0.0
09:30 25.8 59.0 1019.4 1.6 W 4.8 0.0
09:35 26.1 57.0 1019.5 3.2 NNW 4.8 0.0
09:40 26.2 54.0 1019.5 3.2 SE 6.4 0.0
09:45 26.3 51.0 1019.5 1.6 ESE 6.4 0.0
09:50 26.6 51.0 1019.4 1.6 WNW 6.4 0.0
09:55 26.7 51.0 1019.4 3.2 WNW 8.0 0.0
10:00 26.7 54.0 1019.4 1.6 SSE 4.8 0.0
10:05 26.9 54.0 1019.3 1.6 NW 4.8 0.0
10:10 27.2 58.0 1019.2 0.0 WSW 4.8 0.0
10:15 27.3 52.0 1019.2 0.0 SW 3.2 0.0
10:20 27.5 57.0 1019.2 0.0 WNW 4.8 0.0
10:25 27.6 48.0 1019.2 3.2 NW 9.7 0.0
10:30 27.6 46.0 1019.2 1.6 W 8.0 0.0
10:35 27.8 50.0 1019.1 0.0 W 4.8 0.0
10:40 27.8 52.0 1019.1 4.8 W 6.4 0.0
10:45 27.9 48.0 1019.1 3.2 SSW 6.4 0.0
10:50 28.1 50.0 1019.0 3.2 NW 12.9 0.0
10:55 28.2 54.0 1019.0 0.0 WSW 12.9 0.0
11:00 28.1 50.0 1019.0 3.2 NW 4.8 0.0
11:05 28.1 45.0 1019.0 1.6 ENE 4.8 0.0
11:10 28.1 45.0 1019.0 0.0 S 4.8 0.0
11:15 28.3 45.0 1018.9 3.2 SW 4.8 0.0
11:20 28.5 49.0 1018.9 3.2 SW 3.2 0.0
11:25 28.5 47.0 1018.8 1.6 SW 4.8 0.0
11:30 28.5 45.0 1018.8 1.6 W 4.8 0.0
11:35 28.6 46.0 1018.7 3.2 NNW 14.5 0.0
11:40 28.6 44.0 1018.7 3.2 S 14.5 0.0
11:45 28.4 46.0 1018.7 3.2 NNW 6.4 0.0
11:50 28.8 43.0 1018.6 3.2 N 12.9 0.0
11:55 29.0 51.0 1018.6 1.6 SSW 12.9 0.0
12:00 29.1 47.0 1018.6 1.6 W 6.4 0.0
12:05 29.2 44.0 1018.6 9.7 W 9.7 0.0
12:10 29.3 48.0 1018.5 1.6 WNW 8.0 0.0
12:15 29.6 45.0 1018.4 3.2 NW 6.4 0.0
12:20 29.7 47.0 1018.3 1.6 W 6.4 0.0
12:25 29.7 49.0 1018.3 1.6 SSW 6.4 0.0
12:30 29.6 44.0 1018.3 8.0 WNW 12.9 0.0
12:35 29.6 44.0 1018.3 1.6 SSW 12.9 0.0
12:40 29.5 42.0 1018.2 14.5 W 17.7 0.0
12:45 29.4 45.0 1018.1 1.6 W 17.7 0.0
12:50 29.4 44.0 1018.0 4.8 WNW 9.7 0.0
12:55 29.4 42.0 1018.0 4.8 WNW 12.9 0.0
13:00 29.6 44.0 1017.9 1.6 WNW 9.7 0.0
13:05 29.7 43.0 1018.0 1.6 NNE 11.3 0.0
13:10 29.7 47.0 1017.8 1.6 SSE 11.3 0.0
13:15 29.7 46.0 1017.8 3.2 N 6.4 0.0
13:20 29.9 43.0 1017.8 1.6 W 11.3 0.0
13:25 30.2 45.0 1017.7 3.2 W 11.3 0.0
13:30 30.4 45.0 1017.6 8.0 WNW 11.3 0.0
13:35 30.6 48.0 1017.5 0.0 WSW 11.3 0.0
13:40 30.7 53.0 1017.5 1.6 WSW 4.8 0.0
13:45 30.6 44.0 1017.5 1.6 W 8.0 0.0
13:50 30.7 47.0 1017.4 1.6 WNW 8.0 0.0
13:55 30.4 47.0 1017.3 3.2 ESE 4.8 0.0
14:00 30.1 51.0 1017.3 0.0 SW 4.8 0.0
14:05 29.8 48.0 1017.2 6.4 E 8.0 0.0
14:10 29.7 56.0 1017.2 1.6 NNW 6.4 0.0
14:15 29.8 50.0 1017.1 0.0 NW 4.8 0.0
14:20 30.1 50.0 1017.1 8.0 NW 9.7 0.0
14:25 30.3 46.0 1017.1 1.6 W 9.7 0.0
14:30 30.4 48.0 1017.1 4.8 SSW 8.0 0.0
14:35 30.3 47.0 1016.9 4.8 NW 6.4 0.0
14:40 30.6 48.0 1016.9 1.6 NW 6.4 0.0
14:45 30.6 46.0 1016.8 1.6 SSW 6.4 0.0
14:50 30.4 50.0 1016.8 0.0 SSW 4.8 0.0
14:55 30.2 47.0 1016.7 0.0 WSW 3.2 0.0
15:00 30.4 48.0 1016.7 1.6 SW 4.8 0.0
15:05 30.3 49.0 1016.6 1.6 SW 4.8 0.0
15:10 30.4 48.0 1016.7 1.6 W 4.8 0.0
15:15 30.7 41.0 1016.6 6.4 WNW 8.0 0.0
15:20 30.8 41.0 1016.5 12.9 W 12.9 0.0
15:25 30.7 43.0 1016.4 1.6 W 14.5 0.0
15:30 30.8 42.0 1016.4 1.6 WNW 11.3 0.0
15:35 30.9 46.0 1016.4 1.6 WNW 8.0 0.0
15:40 30.9 48.0 1016.2 1.6 WSW 14.5 0.0
15:45 30.7 48.0 1016.2 0.0 SW 9.7 0.0
15:50 30.2 50.0 1016.2 3.2 WNW 4.8 0.0
15:55 30.1 51.0 1016.1 0.0 NW 4.8 0.0
16:00 29.8 50.0 1016.1 0.0 SSE 4.8 0.0
16:05 29.8 50.0 1016.1 1.6 WNW 4.8 0.0
16:10 29.7 52.0 1016.0 1.6 SSE 4.8 0.0
16:15 29.6 51.0 1016.0 1.6 S 4.8 0.0
16:20 29.6 49.0 1015.8 1.6 S 4.8 0.0
16:25 29.7 51.0 1015.8 3.2 WNW 3.2 0.0
16:30 30.1 50.0 1015.8 1.6 NW 6.4 0.0
16:35 30.0 49.0 1015.8 0.0 WSW 6.4 0.0
16:40 30.1 51.0 1015.8 0.0 NW 8.0 0.0
16:45 30.2 48.0 1015.9 1.6 WNW 6.4 0.0
16:50 30.2 49.0 1015.8 3.2 WSW 6.4 0.0
16:55 29.9 49.0 1015.8 0.0 SW 4.8 0.0
17:00 29.7 52.0 1015.7 0.0 WSW 4.8 0.0
17:05 29.5 51.0 1015.7 1.6 WSW 4.8 0.0
17:10 29.2 50.0 1015.7 0.0 WSW 3.2 0.0
17:15 28.9 51.0 1015.7 1.6 WSW 3.2 0.0
17:20 28.8 52.0 1015.8 1.6 NW 4.8 0.0
17:25 28.8 54.0 1015.7 1.6 NW 4.8 0.0
17:30 28.9 51.0 1015.7 0.0 NW 4.8 0.0
Màxima 30.9 96.0 1021.1 14.5 W 17.7 0.0
Mínima 11.1 41.0 1015.7
Total 0.0